GS1960 Weather Reports


Display with metric or nautical units.
time (UTC)temp
F
wind
direction
speed
MPH
gust
MPH
rain 1hr
in
rain 24hr
in
rain mn
in
humidity
%
barometer
mb
20260507114521 57 265 1.0 3.0 0.42 1.35 1.35 91 1014.9
20260507113030 57 284 0.0 3.0 0.51 1.34 1.34 91 1015.0
20260507111511 57 283 1.0 3.0 0.34 1.16 1.16 90 1015.1
20260507110016 56 267 0.0 2.0 0.30 1.08 1.08 90 1015.1
20260507104520 56 235 0.0 1.0 0.16 0.93 0.93 90 1015.2
20260507103028 56 226 1.0 2.0 0.10 0.83 0.83 90 1015.1
20260507101534 56 265 0.0 2.0 0.13 0.82 0.82 90 1015.0
20260507100017 55 255 0.0 2.0 0.17 0.78 0.78 90 1015.2
20260507094523 54 271 0.0 7.0 0.28 0.77 0.77 90 1015.3
20260507093022 54 236 0.0 2.0 0.32 0.73 0.73 90 1015.2
20260507091506 53 295 1.0 3.0 0.48 0.69 0.69 89 1015.2
20260507090012 53 297 0.0 4.0 0.55 0.61 0.61 88 1015.2
20260507084514 53 274 2.0 8.0 0.48 0.49 0.49 87 1014.9
20260507081503 57 77 0.0 3.0 0.21 0.21 0.21 87 1014.3
20260507080005 58 224 0.0 1.0 0.06 0.06 0.06 86 1013.9
20260507074511 59 224 0.0 1.0 0.01 0.01 0.01 84 1013.9
20260507073017 61 25 0.0 0.0 0.00 0.00 0.00 79 1013.9
20260507071519 61 25 0.0 3.0 0.00 0.00 0.00 75 1013.8
20260507070010 62 116 1.0 5.0 0.00 0.00 0.00 74 1013.7
20260507064514 62 139 0.0 4.0 0.00 0.04 0.00 74 1013.5
20260507063014 62 88 3.0 6.0 0.00 0.14 0.00 72 1013.4
20260507061522 63 81 1.0 2.0 0.00 0.15 0.00 73 1013.4
20260507060021 61 110 0.0 3.0 0.00 0.15 0.00 79 1013.4
20260507054505 59 124 0.0 1.0 0.00 0.15 0.00 85 1013.3
20260507053010 58 124 0.0 1.0 0.00 0.15 0.00 87 1013.2
20260507050027 57 253 0.0 0.0 0.00 0.15 0.00 89 1012.9
20260507044524 56 252 0.0 0.0 0.00 0.15 0.00 89 1012.8
20260507043006 56 255 0.0 1.0 0.00 0.15 0.00 89 1012.6
20260507041513 56 252 0.0 0.0 0.00 0.16 0.00 89 1012.5
20260507040020 56 252 0.0 0.0 0.00 0.16 0.00 89 1012.4
20260507034521 56 252 0.0 0.0 0.00 0.16 0.00 89 1012.4
20260507033030 56 252 0.0 1.0 0.00 0.16 0.00 88 1012.4
20260507031537 57 252 0.0 1.0 0.00 0.16 0.00 88 1012.3
20260507030017 57 251 0.0 1.0 0.00 0.16 0.00 88 1012.4
20260507024522 57 113 0.0 0.0 0.00 0.20 0.00 87 1012.3
20260507023023 57 113 0.0 0.0 0.00 0.21 0.00 87 1012.3
20260507021525 58 113 0.0 0.0 0.00 0.22 0.00 85 1012.3
20260507020026 58 113 0.0 0.0 0.00 0.32 0.00 84 1012.2
20260507014521 59 113 0.0 3.0 0.00 0.42 0.00 83 1012.2
20260507013032 59 76 1.0 7.0 0.00 0.52 0.00 82 1012.1
20260507011531 59 75 3.0 6.0 0.00 0.64 0.00 83 1012.2
20260507010031 59 77 3.0 9.0 0.00 0.86 0.00 82 1012.5
20260507004526 59 77 4.0 8.0 0.00 1.07 0.00 82 1012.3
20260507003019 59 65 3.0 9.0 0.00 1.07 0.00 82 1012.3
20260507001503 59 63 4.0 8.0 0.00 1.07 0.00 81 1012.2
20260507000006 59 58 2.0 6.0 0.00 1.07 0.00 80 1012.2
20260506234509 59 72 3.0 7.0 0.00 1.07 0.00 79 1012.2
20260506233016 59 103 3.0 7.0 0.00 1.07 0.00 79 1012.4
20260506231522 59 70 3.0 9.0 0.00 1.07 0.00 79 1012.3
20260506230007 60 77 4.0 11.0 0.00 1.07 0.00 79 1012.2
20260506224506 60 101 3.0 9.0 0.00 1.07 0.00 79 1012.2
20260506223016 60 78 3.0 9.0 0.00 1.07 0.00 79 1012.3
20260506221517 60 93 2.0 11.0 0.00 1.07 0.00 79 1012.3
20260506220022 60 102 7.0 11.0 0.00 1.07 0.00 79 1012.4
20260506214525 60 81 3.0 10.0 0.00 1.07 1.07 80 1012.3
20260506213009 60 68 4.0 10.0 0.00 1.07 1.07 80 1012.2
20260506211519 60 79 3.0 9.0 0.00 1.07 1.07 80 1012.4
20260506210018 60 63 4.0 8.0 0.00 1.07 1.07 80 1012.3
20260506204521 60 86 3.0 9.0 0.00 1.07 1.07 80 1012.2
20260506203034 60 67 2.0 9.0 0.00 1.07 1.07 80 1012.1
20260506201508 60 88 3.0 9.0 0.00 1.07 1.07 81 1012.0
20260506200012 60 84 3.0 6.0 0.00 1.07 1.07 81 1011.9
20260506194519 60 116 2.0 5.0 0.00 1.07 1.07 81 1011.6
20260506193020 60 128 4.0 10.0 0.00 1.07 1.07 82 1011.3
20260506191524 60 80 4.0 12.0 0.00 1.07 1.07 81 1011.3
20260506190007 60 77 5.0 13.0 0.00 1.07 1.07 81 1011.0
20260506184511 60 72 4.0 12.0 0.00 1.07 1.07 81 1010.8
20260506183016 60 55 7.0 14.0 0.00 1.07 1.07 82 1010.6
20260506181522 60 73 5.0 16.0 0.00 1.07 1.07 81 1010.2
20260506180029 60 96 5.0 15.0 0.00 1.07 1.07 81 1010.0
20260506174509 60 91 7.0 16.0 0.00 1.07 1.07 79 1009.8
20260506173019 60 128 6.0 10.0 0.00 1.07 1.07 79 1009.9
20260506171503 60 71 8.0 15.0 0.00 1.07 1.07 80 1009.8
20260506170003 60 132 5.0 14.0 0.00 1.07 1.07 79 1009.7
20260506164504 61 113 7.0 12.0 0.00 1.07 1.07 78 1009.7
20260506163004 61 83 6.0 17.0 0.00 1.07 1.07 78 1009.8
20260506161503 61 122 6.0 12.0 0.00 1.07 1.07 78 1009.9
20260506160004 61 75 4.0 13.0 0.00 1.07 1.07 79 1009.8
20260506154504 62 96 4.0 10.0 0.00 1.07 1.07 78 1009.8
20260506153003 62 79 5.0 17.0 0.00 1.07 1.07 78 1009.8
20260506151503 62 108 3.0 11.0 0.00 1.07 1.07 77 1009.8
20260506150005 62 109 5.0 20.0 0.00 1.07 1.07 76 1009.9
20260506144504 62 56 8.0 17.0 0.00 1.07 1.07 74 1009.7
20260506143004 62 74 7.0 17.0 0.00 1.07 1.07 79 1009.6
20260506141502 62 80 9.0 19.0 0.00 1.07 1.07 78 1009.8
20260506140004 62 87 5.0 13.0 0.00 1.07 1.07 78 1009.8
20260506134504 63 82 7.0 18.0 0.00 1.07 1.07 77 1009.9
20260506130006 65 169 7.0 19.0 0.00 1.07 1.07 73 1010.0
20260506124507 66 79 5.0 14.0 0.00 1.07 1.07 76 1009.8
20260506123005 65 72 8.0 13.0 0.00 1.07 1.07 76 1009.6
20260506120014 65 96 7.0 15.0 0.00 1.07 1.07 79 1009.4